Theta_e
330 329 329 329 328 327 329 329 329 330 330 330 330 331 332 333 333 333 334 334 335 336 335 336 337 337 337 338 337 336 336 336 336 337 337 335 334 333 334 334 334 333 333 333 333 333 333 333 333 332 332 332 332 333 333 333 332 332 331 329 329 329 328 327 326 326 326 326 325 325 325 326 326 325 325 325 325 325 324 325 324 325 325 325 324
329 328 328 327 327 327 327 328 328 328 329 329 329 329 330 330 331 331 332 333 333 334 335 336 336 336 337 337 336 336 336 336 336 337 336 335 333 333 334 334 332 332 332 333 333 332 333 333 332 332 332 333 333 333 333 332 331 330 328 327 327 326 325 324 324 324 323 323 322 322 322 322 323 323 323 323 323 323 322 322 322 322 322 322 322
327 327 327 327 326 326 327 327 327 327 327 327 327 328 328 329 329 330 331 331 331 333 335 335 336 336 336 336 336 336 335 336 336 336 336 334 333 333 333 333 332 332 332 332 332 332 331 331 332 332 332 332 332 331 331 330 328 326 324 324 323 322 322 321 321 320 320 319 319 318 318 317 317 318 319 320 320 320 320 320 320 319 319 320 319
329 327 326 327 327 327 327 327 326 325 326 325 325 327 327 327 328 328 329 329 330 333 335 335 335 335 335 336 336 335 335 336 335 335 335 334 333 331 332 332 332 331 330 330 331 331 331 331 331 331 331 331 330 330 329 328 326 324 322 321 321 321 320 320 320 320 318 317 317 316 316 315 315 315 316 316 316 317 318 318 318 317 317 318 317
329 328 327 327 327 327 327 327 326 326 326 324 324 325 326 327 328 328 328 328 329 332 333 334 335 335 335 335 335 335 335 334 335 334 334 334 333 331 331 331 332 331 329 329 330 330 330 330 330 330 330 329 329 329 329 327 325 324 322 321 321 321 320 319 320 319 318 317 316 315 315 315 314 315 315 315 315 314 315 315 315 315 315 315 314
329 329 329 328 327 328 327 327 326 326 326 324 324 324 325 327 327 327 327 327 328 330 331 331 333 334 335 335 335 335 334 334 334 334 333 333 332 331 330 330 331 330 330 329 329 329 329 328 328 329 328 328 328 327 327 326 325 324 323 321 321 320 318 318 319 318 317 317 316 315 316 315 314 314 314 313 314 314 313 313 313 313 313 313 312
329 330 330 328 327 327 327 327 327 327 326 325 325 324 325 326 327 327 327 327 328 329 330 331 332 334 335 335 335 334 333 333 334 333 333 332 331 331 331 330 330 330 330 329 328 328 327 326 327 327 326 326 327 327 326 326 325 324 323 322 320 319 317 317 318 316 316 317 316 315 315 314 314 313 313 313 313 312 312 312 312 312 312 311 311
330 329 329 328 326 327 327 327 327 327 326 326 325 324 324 326 328 328 327 327 327 329 330 332 333 334 334 335 334 334 333 333 333 332 332 331 331 331 330 330 329 329 329 328 327 326 325 325 325 324 324 324 324 325 324 324 323 323 323 322 320 318 317 317 316 315 315 316 315 314 314 314 313 312 312 312 311 311 311 311 311 311 311 311 311
330 329 329 328 326 326 327 327 327 327 327 327 326 325 324 325 328 329 328 327 328 328 329 331 332 333 334 334 333 333 333 333 333 332 331 330 331 330 329 329 329 329 328 327 327 326 324 324 323 322 321 321 321 321 321 320 320 321 321 320 319 317 316 316 315 314 314 314 314 313 313 313 313 312 311 311 310 310 310 311 311 310 310 310 310
330 330 329 328 327 326 327 327 327 327 328 327 326 326 325 325 326 328 328 327 328 328 328 329 331 332 333 332 332 333 333 333 333 331 330 330 330 329 329 328 328 327 327 326 326 325 324 323 323 321 320 318 318 317 317 317 318 319 318 318 318 317 315 314 314 314 313 313 312 312 312 312 312 311 311 311 310 310 310 310 310 310 310 310 310
330 330 330 329 327 327 327 327 328 328 328 327 326 326 326 325 324 326 328 328 327 327 328 329 330 331 331 331 332 332 332 332 331 330 330 330 329 328 328 326 326 326 325 325 325 324 323 323 323 322 319 317 315 314 312 312 314 316 315 315 316 315 315 313 313 313 312 312 312 311 311 311 311 311 310 310 310 309 309 310 309 309 309 309 309
330 330 331 330 329 327 327 328 328 328 328 328 327 326 326 327 325 324 326 327 328 328 329 330 330 332 331 331 331 331 331 331 331 330 330 330 328 327 326 325 326 325 325 324 323 322 322 321 321 321 320 318 316 314 312 311 312 313 313 313 314 314 314 313 312 312 311 311 311 311 310 310 310 310 310 310 309 309 309 309 309 309 309 309 309
331 330 331 331 330 328 328 328 328 327 328 328 327 327 327 328 326 325 325 326 327 328 330 330 331 332 332 332 332 331 331 331 331 330 330 329 328 327 325 325 325 325 324 323 322 320 319 319 318 318 318 318 317 316 315 313 312 312 311 312 313 313 313 312 312 311 311 311 310 310 310 309 310 310 309 309 308 308 309 309 309 309 309 309 309
332 331 331 332 331 330 329 328 328 328 328 328 328 328 327 327 326 326 324 325 326 328 330 331 330 331 333 332 331 331 331 330 330 329 329 328 327 327 325 324 324 324 323 321 320 318 317 316 316 316 315 316 316 315 315 313 312 311 311 311 312 312 312 311 311 310 310 310 309 310 310 309 310 310 309 308 308 308 309 309 309 309 309 309 309
332 331 331 331 331 330 330 329 328 328 328 328 328 328 327 327 327 325 324 324 325 326 328 331 330 330 331 330 329 330 330 330 329 328 329 328 327 326 325 324 323 322 321 320 318 317 315 315 314 314 314 315 315 314 314 313 311 311 311 311 311 311 311 311 310 310 309 309 309 309 309 309 309 309 309 309 309 309 309 309 309 309 309 309 309
330 330 329 330 331 331 330 330 330 330 329 328 328 327 327 327 326 326 325 324 324 324 326 329 330 330 329 328 327 327 328 329 329 328 328 327 327 326 324 323 322 322 321 319 317 315 314 314 313 314 314 313 313 312 311 310 311 311 310 310 310 310 310 310 309 309 309 309 308 309 309 308 309 309 309 309 308 308 308 308 308 309 309 309 310
330 330 329 329 330 330 330 329 330 330 330 329 328 327 327 327 326 326 326 325 324 324 324 325 327 329 329 329 328 327 327 328 328 328 327 327 327 325 324 323 322 321 320 318 317 315 314 313 313 313 312 311 310 308 307 308 310 311 311 310 310 310 309 309 309 309 308 308 308 308 308 308 309 310 309 309 308 308 308 308 308 309 309 308 309
331 331 330 330 330 331 330 330 330 330 330 330 329 328 327 327 326 326 326 325 324 324 324 324 325 327 328 329 329 329 329 329 328 327 325 324 324 323 322 322 321 320 319 318 316 314 313 313 312 310 308 307 306 305 306 307 308 309 310 310 309 309 309 309 309 308 308 308 307 308 308 309 309 309 309 309 308 308 308 308 309 309 309 308 308
330 330 330 330 330 330 330 329 329 329 329 330 331 330 328 327 326 326 326 325 324 324 324 324 324 325 326 328 329 330 329 329 329 328 326 323 321 322 321 319 318 318 317 316 315 313 312 311 310 307 305 305 304 304 305 306 307 308 308 309 309 309 309 308 308 308 307 307 307 308 309 309 308 308 309 309 308 308 308 308 309 309 309 309 309
328 327 327 329 331 330 328 328 328 328 328 329 330 330 329 329 328 327 326 325 325 323 323 324 324 324 325 327 329 330 328 329 330 329 328 325 321 320 319 317 315 315 314 314 313 312 312 310 308 306 304 303 303 302 303 304 305 306 307 308 309 308 308 308 308 307 307 306 307 309 309 308 307 308 309 308 308 308 308 308 309 309 309 310 310
324 325 324 326 328 328 327 327 328 327 328 327 328 329 329 328 327 328 328 326 324 322 322 324 323 323 324 326 328 329 328 329 330 330 329 327 323 320 319 317 314 313 312 311 311 311 310 308 306 305 304 303 301 300 300 301 304 305 304 306 308 308 308 308 307 307 306 306 307 308 308 307 307 307 308 307 308 308 308 308 309 309 309 310 310
322 323 323 323 324 326 327 327 327 327 328 327 326 328 328 326 325 327 328 327 325 323 322 322 322 323 324 325 326 328 329 329 330 330 328 327 326 323 321 319 316 313 311 310 310 310 309 307 306 305 305 304 302 299 298 298 301 300 298 302 307 307 307 307 306 306 306 306 307 307 307 307 306 306 307 307 307 307 308 308 308 309 309 309 310
320 321 322 322 322 324 325 325 326 328 328 328 327 327 327 326 325 326 326 326 325 324 322 321 322 322 323 324 324 326 328 329 329 328 328 327 327 325 323 321 319 314 310 309 310 310 308 307 306 305 305 305 303 300 298 297 296 294 292 300 307 307 306 307 306 306 306 305 306 305 305 305 306 306 306 306 307 308 308 308 308 308 309 309 309
318 319 320 320 322 322 323 323 325 326 327 328 328 327 326 325 325 324 324 324 324 324 323 321 321 322 323 323 323 325 327 328 327 327 327 327 327 326 324 323 320 314 308 308 310 310 308 306 305 305 305 306 304 302 299 298 296 294 292 297 304 307 307 306 306 305 305 305 305 304 304 305 305 305 306 306 306 307 308 308 308 308 308 308 309
315 318 319 319 320 321 322 323 324 325 326 328 328 328 327 325 325 324 323 324 323 323 323 322 321 322 322 322 323 323 325 326 326 327 326 326 325 326 324 323 319 313 309 309 311 311 307 306 305 305 306 306 305 303 301 299 298 298 297 296 299 303 305 305 305 305 304 304 304 304 304 304 304 304 305 305 305 305 306 307 307 307 307 308 308
313 316 318 318 318 320 321 322 323 324 325 326 327 327 325 325 325 323 322 323 323 322 321 321 321 321 321 321 322 322 324 326 326 326 326 326 325 326 324 322 318 312 310 310 312 312 309 306 305 305 307 306 306 304 302 300 298 298 299 298 296 298 299 300 302 303 304 304 304 303 303 303 303 303 303 304 304 303 304 305 306 307 307 307 306
312 314 316 317 318 319 320 322 322 323 324 324 325 326 325 325 326 324 323 322 321 320 320 319 320 320 321 321 321 322 323 326 326 326 326 325 325 325 324 321 317 313 312 312 314 314 310 306 305 306 307 307 307 305 302 301 299 299 301 300 298 297 297 297 297 298 299 301 303 303 303 303 303 302 303 303 303 303 303 305 306 307 306 306 305
313 315 316 316 317 318 319 319 321 322 322 323 324 323 324 324 324 325 323 322 321 320 319 320 320 319 320 320 321 321 323 325 325 325 325 325 325 325 323 321 318 316 315 315 315 314 311 307 306 306 307 307 307 304 302 301 301 302 303 302 300 298 297 297 296 295 295 296 298 299 300 302 302 302 302 301 302 302 302 304 306 306 305 304 303
314 315 315 315 316 317 317 317 319 320 321 322 323 322 323 322 322 323 322 321 320 319 319 318 318 319 319 320 320 321 323 324 324 325 326 326 325 325 324 323 321 320 318 317 317 315 312 309 307 306 307 307 305 304 304 303 302 303 303 303 301 299 298 297 297 297 295 295 294 295 297 299 300 301 301 300 300 298 300 304 305 304 303 303 302
314 315 316 316 315 316 316 316 317 319 320 322 323 322 322 322 322 322 321 321 320 319 319 316 314 317 320 319 319 320 322 325 325 325 326 326 326 326 325 324 323 321 320 319 319 317 313 311 309 307 307 306 305 305 305 303 302 304 304 303 302 301 299 299 298 298 297 296 295 294 295 296 297 299 298 297 295 294 299 303 303 302 303 302 302
314 316 316 316 316 315 315 316 317 318 320 321 323 323 323 322 322 323 322 321 320 319 319 317 314 316 319 319 319 319 321 324 324 324 326 325 325 325 325 325 324 323 321 320 319 317 314 313 311 308 307 306 305 305 305 304 303 304 305 304 302 301 300 299 300 300 298 297 296 295 295 295 296 296 296 295 293 293 299 303 302 302 302 301 301
314 316 316 316 316 315 315 316 316 318 320 321 321 321 322 321 321 322 321 321 320 319 319 319 317 317 318 318 319 319 319 322 323 324 324 325 325 324 324 324 324 323 322 321 320 317 315 314 312 308 307 307 305 305 306 305 303 304 305 304 302 302 302 301 301 301 300 299 297 296 295 296 295 295 295 294 292 295 301 303 302 302 301 299 299
314 315 315 317 316 314 315 314 314 316 319 320 319 319 321 321 320 320 320 320 320 319 318 318 317 316 318 318 318 318 318 320 322 323 322 323 324 324 324 324 323 323 323 321 320 318 316 314 312 309 308 307 306 306 307 307 305 304 305 304 304 304 304 304 302 301 301 301 299 297 296 296 295 295 295 292 292 297 302 302 302 302 301 299 299
314 315 316 317 316 314 314 314 313 316 317 317 317 318 319 319 319 320 319 319 319 319 318 316 313 314 317 317 317 317 318 320 322 322 320 321 322 323 323 323 322 322 322 321 320 318 317 315 312 310 308 308 307 306 307 308 307 306 306 306 306 305 305 305 304 302 300 301 301 298 297 296 295 295 293 291 294 301 302 301 302 302 301 300 300
313 314 315 315 314 313 314 315 315 317 317 316 316 317 318 319 319 319 319 318 318 318 317 315 313 314 316 317 317 317 318 319 320 320 319 320 321 321 322 321 320 321 321 320 319 318 318 315 313 310 308 308 309 307 307 308 308 308 307 307 307 306 306 305 305 304 301 301 301 299 298 297 295 294 292 291 297 303 302 301 302 302 301 301 300
312 313 313 313 313 313 314 315 316 316 317 315 315 315 316 317 318 319 319 318 317 317 317 316 315 316 316 316 317 317 317 317 318 318 319 319 319 320 322 321 320 321 321 320 318 318 318 316 313 312 310 309 310 308 307 307 308 308 308 308 308 307 307 306 306 305 302 301 301 300 300 299 296 296 294 293 300 304 302 301 301 301 301 300 299
311 312 312 312 313 313 313 314 316 317 316 313 312 314 315 315 316 317 318 317 316 315 315 316 315 315 315 315 316 316 316 317 317 317 318 318 318 319 322 322 321 321 321 319 319 318 317 316 314 312 311 310 310 309 307 307 308 308 308 308 308 307 307 307 307 306 303 303 303 302 302 301 299 299 296 295 300 303 301 301 300 300 301 300 299
310 311 311 312 312 312 313 313 314 316 315 311 310 312 313 312 314 316 315 315 315 314 314 315 315 314 314 314 314 315 316 316 316 316 317 317 317 317 320 323 322 321 321 319 319 319 318 317 314 313 312 311 310 310 308 308 308 308 308 308 308 308 308 307 307 307 306 305 305 303 302 302 300 300 297 295 298 301 301 300 300 300 301 300 300
309 309 310 311 312 312 313 313 313 315 313 309 307 309 310 311 313 315 313 313 314 314 314 315 314 315 315 313 313 314 315 316 315 315 316 316 317 316 318 322 322 322 322 320 319 319 319 317 314 314 313 312 311 310 309 309 309 309 309 309 309 309 309 308 307 307 307 306 306 305 302 302 302 300 298 296 296 299 301 300 299 300 301 301 300
308 308 310 310 310 311 312 312 313 314 312 307 305 307 308 310 312 314 312 312 314 313 313 313 313 314 313 312 313 314 315 315 315 315 315 316 317 316 317 321 323 322 322 321 319 319 318 316 314 313 312 312 311 311 310 309 309 309 309 309 310 309 309 309 308 307 307 306 307 306 303 303 303 301 299 298 296 298 301 301 299 300 301 301 300
307 307 309 309 310 310 310 311 313 313 310 305 304 305 306 308 311 313 313 312 313 312 312 312 313 313 312 312 314 315 314 315 314 314 314 313 315 316 317 320 321 322 322 320 318 317 316 315 314 313 313 312 311 311 310 310 310 310 310 309 309 310 309 309 308 307 306 305 307 306 303 303 304 301 300 299 297 298 301 301 300 300 301 301 300
306 307 308 308 310 309 310 311 312 312 308 304 304 305 306 308 310 312 313 312 311 312 312 312 313 312 311 312 314 313 313 313 312 312 312 311 311 313 315 318 319 321 322 320 317 316 316 315 314 313 312 312 311 311 311 310 310 310 310 309 309 310 309 309 310 308 306 306 307 306 303 303 304 302 300 299 298 298 301 301 300 300 301 301 300
306 307 307 308 309 309 309 310 311 311 308 304 304 305 306 308 310 312 313 312 310 311 311 312 312 311 311 312 313 313 312 312 311 310 310 309 309 311 312 314 316 318 320 319 317 316 315 315 314 314 313 312 312 312 311 311 311 310 310 310 310 311 310 310 311 310 307 306 308 307 304 303 304 303 301 300 298 298 300 301 300 300 301 301 300
306 306 306 307 308 309 309 309 310 310 308 305 305 305 306 308 310 311 312 312 311 310 310 311 312 311 312 313 313 313 313 312 311 311 310 306 306 309 311 312 313 315 318 320 318 317 316 315 315 314 314 314 313 312 311 311 311 310 310 311 310 311 310 310 310 309 307 306 308 308 305 303 304 304 302 301 299 298 300 301 301 301 301 301 300
305 306 306 307 308 308 308 308 309 309 308 305 304 304 306 308 310 312 311 311 311 311 310 310 310 311 312 314 313 313 312 311 310 311 310 308 307 309 311 312 313 313 316 318 319 318 317 316 315 315 314 314 313 312 311 311 311 311 310 311 310 310 310 310 310 309 307 306 308 308 306 304 303 304 302 301 301 299 299 301 301 301 301 301 301
305 305 306 306 307 307 306 307 308 308 308 305 302 303 305 307 309 311 311 311 311 310 310 309 309 310 312 313 313 313 312 311 310 308 310 311 311 312 313 315 315 314 316 318 318 318 317 317 316 316 315 315 315 314 312 311 311 311 310 311 311 310 310 310 308 307 306 306 308 309 307 304 304 304 302 301 302 301 300 301 301 301 300 300 301
304 304 305 305 305 305 305 306 307 307 307 304 302 302 303 306 309 310 309 311 312 311 309 308 308 310 312 312 313 312 312 311 308 306 308 311 312 314 315 316 317 317 317 318 318 318 317 318 318 318 317 317 316 316 314 312 312 312 311 311 310 310 309 309 308 307 307 306 307 309 308 305 304 304 302 301 301 302 301 302 301 300 300 300 300
302 303 303 304 304 304 305 306 305 306 305 303 302 301 302 305 308 308 307 309 312 312 310 309 308 309 311 312 312 312 312 310 306 302 304 309 311 313 314 315 316 316 316 317 318 318 318 318 317 317 317 316 315 315 314 313 314 313 311 310 310 309 309 309 309 308 308 306 306 308 309 306 304 304 303 301 301 301 301 302 302 301 299 300 301
301 302 302 303 303 304 305 305 304 304 304 303 301 300 301 303 306 305 305 307 311 312 311 310 309 309 311 311 311 312 312 310 305 301 301 305 309 311 313 314 315 314 313 313 316 318 318 318 317 317 317 315 314 314 313 312 312 312 310 310 310 309 310 310 310 309 308 306 306 307 308 306 304 304 304 303 301 301 301 302 302 302 300 301 301
301 301 302 302 303 304 304 304 304 303 303 303 301 300 301 302 303 303 303 305 308 310 310 310 309 309 310 310 309 310 312 310 305 301 300 304 307 308 310 312 313 314 313 312 312 313 314 315 315 315 315 314 313 312 312 310 310 310 311 311 310 309 310 311 310 308 308 307 306 306 308 307 304 304 304 304 303 301 301 302 303 302 302 302 302
300 300 301 302 302 303 303 304 303 303 303 302 301 300 300 301 301 302 302 303 305 307 309 310 308 307 309 310 309 308 310 309 305 301 302 305 307 307 307 309 311 312 313 313 313 313 312 313 313 313 313 312 311 311 310 310 309 310 312 311 309 309 310 310 309 309 310 309 306 306 308 307 305 304 303 304 305 302 300 302 303 303 303 303 302
Wind_Speed
9 9 9 8 8 8 7 7 7 7 7 7 7 8 7 7 7 6 5 4 4 4 4 4 4 4 3 3 3 4 4 4 4 4 4 6 10 7 5 6 5 4 4 3 3 3 3 3 2 1 1 2 3 1 1 2 2 2 1 3 4 6 10 10 8 5 5 5 4 3 3 4 4 5 6 7 7 6 7 6 6 6 6 6 6
9 8 8 8 7 7 7 7 7 7 8 8 7 8 8 8 7 7 6 5 5 5 5 4 3 3 2 3 3 4 4 4 4 4 4 6 11 10 9 9 8 8 7 6 6 7 7 7 6 4 4 6 8 8 8 8 9 10 11 12 11 10 11 10 8 6 6 6 6 6 5 5 4 5 5 6 6 5 5 6 6 6 7 7 8
7 7 6 6 6 6 6 6 7 7 8 8 8 8 9 8 8 7 7 7 5 5 4 3 3 2 2 2 3 3 3 3 4 4 4 5 10 13 12 11 11 11 10 10 10 10 11 11 10 9 9 11 13 13 13 14 13 13 13 12 11 11 11 10 9 8 7 7 8 8 9 9 8 7 7 7 7 7 7 8 8 8 8 9 10
6 6 6 5 5 5 5 5 6 7 7 9 9 8 8 8 8 8 7 7 5 4 3 2 2 1 2 2 2 3 3 3 3 4 4 5 8 12 12 13 14 14 14 13 13 13 14 14 13 13 13 14 15 14 13 13 13 13 13 13 12 12 12 12 11 9 9 10 10 11 11 11 11 10 10 10 9 9 9 10 11 11 12 12 13
6 7 6 5 5 5 5 5 6 7 7 8 8 7 7 7 7 7 6 7 5 3 3 2 0 1 2 2 2 2 2 3 3 4 4 4 5 8 12 14 14 14 15 15 15 15 16 16 17 16 15 15 15 14 13 13 14 12 11 12 13 12 12 13 11 9 11 12 12 13 12 12 13 12 12 13 13 11 11 11 12 12 13 14 14
6 7 7 6 5 6 6 6 7 7 7 8 8 7 7 7 7 6 5 5 4 3 3 1 0 1 2 2 2 2 2 3 3 3 4 4 5 7 9 10 10 12 14 15 15 16 16 17 17 16 16 15 14 14 12 12 13 11 9 11 11 12 14 13 10 10 11 11 12 12 11 12 13 12 13 13 13 13 13 12 12 12 12 12 13
6 7 7 6 6 6 6 7 7 8 8 9 8 8 8 7 7 7 6 4 3 2 2 1 0 1 2 2 2 1 2 3 3 3 3 4 7 9 8 7 7 10 10 12 15 16 15 16 15 15 15 14 14 13 12 12 12 11 11 10 10 12 13 11 9 10 10 10 11 11 10 11 12 12 13 13 13 13 13 13 13 13 12 13 13
6 6 6 6 6 5 6 7 7 7 8 8 8 8 8 7 7 7 7 6 4 2 2 1 1 2 2 1 1 2 2 2 3 2 3 7 9 9 9 8 7 8 8 10 14 15 15 15 14 14 13 13 13 12 12 13 12 12 13 12 11 11 11 11 10 10 10 10 11 10 10 11 11 12 13 13 14 13 13 13 13 13 13 13 14
5 6 6 6 5 5 5 5 6 6 7 7 7 8 8 8 7 6 6 6 4 3 2 0 1 2 3 2 2 2 1 2 2 1 3 8 9 7 8 8 7 8 7 8 11 11 12 13 13 13 12 12 11 11 12 13 13 12 13 13 12 12 11 11 10 10 10 10 10 10 11 11 11 12 12 13 13 13 13 13 13 13 14 14 14
6 6 6 6 6 6 5 5 5 5 6 6 6 7 7 8 8 7 6 6 5 4 2 1 1 2 3 2 1 0 1 1 2 1 5 9 9 7 7 8 8 8 8 9 9 8 9 10 11 12 11 11 11 11 11 13 14 14 13 13 12 12 11 10 10 10 10 10 10 10 10 11 11 11 12 12 12 13 13 13 13 13 14 14 14
7 7 7 7 7 6 6 6 6 5 5 6 6 6 6 7 7 7 6 6 5 4 3 1 1 2 4 3 2 1 1 2 1 3 6 8 8 8 8 9 9 9 9 9 9 9 8 8 8 9 10 11 11 12 12 12 14 15 14 13 12 11 10 10 9 9 10 10 10 11 10 11 11 11 12 12 12 13 13 13 14 14 14 14 15
8 8 7 7 7 7 7 7 7 6 6 6 6 6 6 6 7 7 7 6 5 5 3 2 2 2 3 2 2 2 2 3 2 5 8 7 9 10 9 9 8 8 9 8 8 8 8 7 7 7 7 9 12 13 14 13 14 14 14 13 11 11 10 10 9 9 10 10 10 11 11 11 12 12 12 13 13 14 14 14 14 14 15 15 15
9 8 8 8 8 8 7 7 7 7 7 7 6 6 6 6 6 6 7 7 6 5 4 4 4 3 3 3 3 2 3 4 4 7 9 8 9 10 9 9 8 8 9 8 8 8 8 7 7 7 6 7 9 11 13 14 14 14 13 12 11 10 10 10 9 9 10 10 10 11 11 12 12 12 13 13 14 14 14 15 15 15 15 16 16
10 10 9 9 9 9 8 8 8 7 8 8 8 7 7 6 7 6 6 7 7 6 5 6 7 5 4 4 4 3 3 5 6 9 9 8 9 10 9 9 8 8 8 8 8 8 8 8 8 8 7 6 6 7 9 11 13 13 13 12 11 11 10 10 10 10 10 10 11 11 11 12 12 12 13 13 14 14 15 15 16 16 16 16 16
12 12 11 11 10 10 10 9 9 9 9 8 8 8 7 7 7 6 6 7 7 7 6 8 8 7 6 5 4 4 4 5 7 8 8 7 9 9 9 9 8 8 8 7 8 8 8 8 9 9 8 7 7 6 7 8 9 12 12 12 11 11 10 10 10 10 10 10 11 11 12 12 12 13 13 13 14 15 15 15 16 17 17 16 16
15 15 15 14 13 13 12 11 11 10 10 10 9 9 8 8 7 6 6 7 7 5 6 8 9 8 6 5 4 4 4 5 7 6 6 7 8 9 8 10 9 7 8 7 8 8 8 9 9 9 8 8 7 7 7 7 7 9 11 11 11 11 11 10 10 10 10 11 11 11 12 12 12 13 13 14 15 15 16 15 16 17 17 16 17
17 17 18 18 16 15 15 14 13 12 11 11 10 9 9 9 8 8 7 7 7 6 7 8 10 10 8 7 4 4 3 6 8 4 6 8 7 8 8 9 8 7 7 7 8 8 9 9 9 9 8 8 7 7 7 7 8 8 10 11 11 11 11 10 10 10 10 11 11 11 12 12 13 13 14 15 15 16 16 15 16 17 17 17 17
19 19 21 21 20 18 17 17 16 15 13 12 12 11 10 10 9 9 8 8 7 7 8 7 9 10 11 11 6 5 4 4 6 2 7 8 6 8 8 7 7 6 6 7 8 8 9 9 9 9 9 8 8 8 8 8 9 9 10 10 10 10 10 11 10 11 11 11 11 12 12 12 13 14 14 14 15 16 16 16 17 17 17 18 16
21 21 21 21 22 21 19 20 21 19 17 14 13 13 12 11 10 10 9 8 8 8 8 7 8 10 11 11 9 9 8 5 5 3 5 5 4 6 7 6 6 6 6 7 8 8 8 9 9 9 9 9 9 8 8 9 9 10 10 10 10 10 10 11 11 11 11 11 12 12 13 13 14 14 14 15 15 16 16 16 17 17 16 17 15
22 23 24 20 20 22 21 21 21 22 23 20 16 14 13 13 11 11 11 10 9 9 9 8 8 9 9 10 10 10 10 9 8 6 5 5 4 5 6 7 5 5 5 6 7 8 9 9 9 9 10 10 10 9 8 8 9 9 10 11 10 10 10 11 11 12 12 12 12 13 14 14 14 14 14 15 16 16 15 16 16 16 16 16 15
22 24 26 23 20 23 24 22 20 21 24 25 22 16 15 16 15 12 12 11 11 10 10 9 8 9 9 10 10 10 9 9 9 9 6 4 5 6 7 7 6 5 4 5 7 8 9 9 9 9 9 10 10 10 9 9 9 8 9 10 10 10 10 11 11 12 12 12 13 13 13 13 13 14 14 15 16 15 15 16 16 16 16 16 16
23 23 23 24 23 22 21 22 22 20 21 23 24 19 18 21 20 16 13 12 12 11 10 10 9 9 10 10 10 9 8 7 8 8 6 4 5 7 10 10 8 7 5 5 6 7 8 8 8 8 8 9 9 10 11 10 9 8 7 10 11 10 10 11 11 12 12 12 13 13 13 13 14 14 14 15 15 15 16 16 16 17 17 16 16
23 23 22 23 24 22 22 22 21 20 20 20 21 21 20 20 18 16 14 14 14 12 11 11 10 10 11 11 11 9 7 7 7 8 7 6 5 6 10 12 10 9 7 5 6 6 7 7 8 8 8 9 9 10 11 11 12 11 9 11 12 11 11 11 11 12 12 13 14 14 14 15 15 14 14 15 16 16 16 16 17 17 17 16 17
22 22 23 24 24 23 24 24 21 20 20 19 19 20 19 18 17 16 16 17 16 13 12 11 10 10 11 11 11 9 8 8 7 8 9 7 4 4 8 11 9 8 8 7 6 5 6 7 8 8 8 9 9 10 10 11 13 15 12 12 13 12 12 12 12 12 12 13 14 15 15 16 16 15 15 16 18 18 17 17 18 17 17 16 17
23 22 23 24 23 23 25 24 23 22 20 19 17 18 18 17 17 17 17 18 17 14 12 11 11 11 11 11 11 10 8 9 7 8 8 7 5 4 7 9 7 8 9 8 6 6 6 6 7 8 8 9 8 9 10 10 12 15 15 14 15 14 13 13 12 12 12 12 13 14 15 16 17 17 17 18 19 20 20 19 19 17 16 16 17
24 22 22 23 23 23 24 24 24 23 22 20 18 19 20 18 19 20 19 19 18 15 12 11 11 11 11 10 11 10 8 8 8 8 8 8 7 6 7 8 7 9 9 9 8 7 7 7 7 8 8 8 8 8 9 9 11 14 14 15 16 17 16 15 14 12 12 12 13 14 15 16 17 17 18 19 19 21 21 20 20 18 16 16 17
22 21 22 23 23 23 23 23 24 23 22 21 19 19 20 19 20 20 19 19 16 14 13 12 11 11 11 11 11 10 8 7 8 8 9 8 8 8 9 7 7 8 7 8 8 8 8 9 7 8 8 8 8 7 9 9 11 13 11 11 13 16 17 18 17 15 14 13 13 14 15 15 16 17 19 19 20 21 22 21 20 19 17 17 17
20 20 21 22 22 23 24 23 24 24 23 22 20 19 18 18 19 18 17 16 14 14 14 11 10 10 10 10 10 10 8 7 7 7 8 8 8 8 10 9 7 6 6 7 7 7 10 10 8 8 8 8 8 8 9 8 9 11 8 7 9 11 14 16 17 18 17 16 15 15 15 16 17 18 19 21 21 23 23 21 20 19 18 18 18
19 20 21 21 22 23 24 24 24 24 23 22 21 21 19 18 19 19 16 13 12 14 13 10 11 12 12 11 10 10 8 7 7 6 7 8 8 9 11 11 8 6 5 6 6 7 10 10 9 10 9 9 9 8 8 6 8 8 5 6 7 7 11 13 14 16 18 18 18 18 18 18 18 18 20 21 23 24 24 22 21 20 18 18 19
19 20 20 20 22 23 24 24 24 23 24 23 21 20 18 16 17 17 14 13 14 13 11 11 13 13 14 13 11 10 8 7 6 6 6 7 8 9 10 10 8 6 5 5 5 8 11 10 9 11 11 10 9 8 7 6 8 8 4 5 5 4 8 11 12 14 16 18 19 19 20 20 21 20 20 22 24 25 24 22 21 19 18 18 19
20 21 21 21 22 24 24 24 24 24 23 22 20 19 18 16 15 14 13 14 14 13 12 13 14 14 14 12 11 11 9 7 7 6 6 6 7 8 8 8 7 7 6 5 4 7 11 11 10 12 13 11 9 8 8 7 7 7 4 4 3 3 5 8 11 13 13 15 18 19 20 22 23 22 22 23 25 26 24 22 22 20 19 19 19
21 21 21 21 23 24 25 25 25 24 23 23 22 21 18 16 14 13 13 13 13 14 14 13 14 15 13 11 12 11 9 8 8 7 6 6 6 6 7 7 6 7 7 6 4 6 9 10 11 13 13 12 10 9 9 7 6 6 5 4 2 1 1 1 7 12 13 13 15 18 19 22 23 23 22 23 25 25 23 23 23 22 21 20 20
22 22 21 21 23 24 25 25 26 25 24 25 26 24 21 18 16 14 13 13 13 14 14 10 11 14 13 12 13 11 9 9 8 8 6 6 6 6 7 7 7 8 8 7 6 7 9 10 11 12 13 12 10 10 9 8 7 6 5 4 3 1 1 3 3 7 12 12 13 16 18 20 22 22 22 24 25 24 23 24 24 24 23 21 20
22 22 22 22 23 24 24 25 26 25 24 27 29 27 24 22 19 16 14 14 14 14 11 6 6 12 13 12 12 9 8 9 9 8 7 6 7 7 7 7 8 9 9 8 8 8 10 11 11 12 13 12 10 9 9 8 7 6 5 4 4 3 1 2 1 4 10 12 12 13 15 18 21 21 22 24 23 22 23 25 26 26 25 23 21
22 22 22 22 23 24 24 24 25 24 25 28 30 28 26 24 21 18 14 13 13 13 9 6 6 12 14 11 10 8 7 9 9 8 7 6 6 6 6 7 8 9 9 8 8 9 10 12 12 12 13 12 9 9 9 7 7 6 5 4 3 3 2 2 1 2 7 10 10 11 14 17 19 21 23 24 22 22 24 26 28 29 27 24 21
22 22 22 22 23 23 23 24 24 23 24 26 28 29 27 24 22 20 16 14 12 12 11 9 8 10 12 11 9 8 7 8 8 7 6 6 6 5 5 6 8 8 8 8 8 8 10 11 11 11 12 12 9 8 9 8 7 6 5 4 3 3 3 3 2 2 4 7 9 11 13 15 18 20 24 25 23 24 26 27 29 30 28 26 22
22 22 23 23 22 23 23 23 23 22 23 25 29 32 31 26 24 22 18 14 11 12 12 11 9 10 10 10 10 9 8 8 7 7 5 5 6 5 5 6 7 8 8 8 8 8 9 10 11 10 11 11 9 8 9 8 7 6 5 4 3 3 2 3 2 2 4 6 9 11 12 13 16 19 22 25 24 26 27 27 29 30 29 26 23
22 22 23 23 23 23 22 22 23 22 22 26 31 35 35 28 25 23 19 14 9 10 11 10 9 10 9 9 10 10 10 9 7 6 5 5 5 6 6 5 6 7 7 8 7 7 8 9 10 10 10 10 9 8 8 8 6 5 5 4 4 3 2 3 2 2 3 3 5 9 10 10 12 16 20 24 25 25 27 27 27 30 30 26 24
22 22 23 23 23 22 22 22 22 21 22 27 33 37 36 29 25 25 21 14 6 5 8 8 7 7 7 8 10 10 10 9 8 6 5 5 6 7 6 5 6 7 7 8 8 9 10 11 10 9 9 9 8 7 7 7 6 5 4 4 3 2 1 1 3 2 2 2 3 5 10 10 9 12 17 23 25 24 25 27 26 29 31 27 24
22 22 22 22 22 23 22 22 22 20 22 30 35 38 37 29 23 24 23 15 7 0 4 4 3 6 7 7 9 9 9 9 7 5 4 4 4 6 7 7 6 7 7 8 10 11 11 10 9 8 8 8 8 6 6 6 6 5 4 4 3 1 1 0 1 3 3 3 2 4 9 10 8 11 14 18 23 22 22 27 26 28 30 27 23
22 22 22 22 22 23 22 22 21 19 22 32 38 37 36 30 21 20 20 14 7 2 1 4 5 6 7 7 8 6 6 6 6 4 3 3 4 4 5 7 7 8 8 9 10 10 9 9 8 8 8 8 8 6 6 7 6 3 3 3 3 1 2 1 2 3 4 4 3 4 8 8 6 9 11 14 20 22 22 27 28 28 30 27 22
22 22 22 22 21 22 22 22 21 18 21 33 42 38 33 29 22 16 14 11 6 3 2 4 5 5 5 6 6 5 5 5 4 3 3 5 6 6 4 5 5 7 9 10 9 9 9 9 9 8 8 7 7 6 6 6 5 3 3 3 3 1 2 2 4 5 4 3 2 4 7 8 6 9 11 13 18 23 25 27 28 28 28 26 22
23 22 22 22 21 21 21 22 21 19 21 34 45 41 34 29 22 15 11 9 7 4 5 5 3 3 4 5 5 4 4 3 3 2 3 4 7 7 5 4 4 5 7 8 9 9 9 9 9 8 8 6 7 6 5 5 5 3 3 3 2 2 1 1 3 5 4 3 2 3 5 7 6 7 11 12 16 23 27 27 26 27 27 25 22
23 22 22 22 21 22 21 22 22 19 21 34 45 43 36 30 22 15 11 10 9 6 5 6 5 3 3 3 3 3 4 4 3 2 3 4 6 7 5 5 5 6 7 7 6 7 8 8 9 7 6 6 6 7 5 5 5 3 3 2 2 1 1 1 1 4 4 2 2 3 5 6 5 6 9 10 13 21 26 27 26 27 26 24 22
23 22 23 22 22 22 22 22 22 19 22 35 45 45 39 32 22 15 13 12 10 8 7 6 4 3 1 2 3 3 4 4 2 1 1 2 3 4 4 4 5 7 9 10 8 6 5 7 8 7 7 6 6 7 6 4 4 3 3 2 1 1 1 1 3 4 3 2 2 1 4 5 5 6 8 8 9 15 23 27 26 26 25 24 22
23 23 23 23 22 22 22 22 21 20 23 34 45 46 42 34 23 15 13 13 11 10 9 7 5 4 2 1 3 3 3 3 1 0 1 2 3 3 3 3 5 6 8 10 10 8 7 6 5 5 7 5 3 5 7 5 4 3 2 1 1 0 1 3 5 4 2 2 3 3 3 5 4 5 8 9 8 10 17 23 26 25 25 24 22
23 23 23 22 21 21 21 21 21 21 23 32 43 47 44 36 25 17 16 15 11 12 13 9 5 4 4 2 2 2 2 3 1 1 2 2 3 5 4 4 4 4 5 8 9 8 7 5 3 3 5 5 4 6 7 6 5 3 1 2 1 1 2 3 4 3 3 3 3 4 2 5 4 4 7 8 9 9 11 18 22 24 26 24 22
22 22 22 21 21 21 22 22 21 21 23 30 41 47 44 37 29 21 18 16 12 12 15 12 7 5 5 4 2 2 2 2 1 2 3 3 3 5 5 5 5 5 5 7 8 9 7 6 6 6 6 5 5 7 7 6 5 3 2 1 1 2 3 3 3 4 3 3 3 4 3 5 5 4 5 6 8 9 10 14 19 22 25 25 22
23 23 22 22 22 21 21 22 22 22 22 28 39 46 44 39 33 24 18 16 14 13 14 14 10 6 6 5 1 2 2 2 1 1 3 3 2 4 5 6 6 6 5 4 5 7 7 6 6 6 5 4 5 6 7 7 6 5 3 2 2 2 3 2 2 4 3 3 4 3 3 5 5 4 3 4 6 9 11 12 16 19 22 22 20
23 23 22 21 21 20 20 21 22 22 23 27 37 44 43 39 36 29 21 17 16 15 14 14 13 9 6 4 1 1 2 3 3 2 4 2 1 3 4 5 6 7 7 7 7 7 6 5 5 5 5 5 5 6 7 8 9 6 4 2 0 2 3 1 2 3 4 5 4 3 2 4 4 5 4 1 4 8 11 12 14 17 18 17 17
23 23 23 22 21 20 21 21 22 23 24 26 34 42 42 39 38 35 27 21 19 17 14 14 16 13 7 5 4 1 3 4 3 3 4 2 1 1 3 4 5 6 6 6 7 8 8 7 7 6 6 7 6 6 7 9 12 9 3 2 1 2 3 1 2 0 2 5 5 4 4 3 3 5 7 3 3 7 10 11 13 15 15 14 14
Wind_Direction
11 6 3 1 1 358 355 353 349 348 342 338 333 323 312 306 306 301 289 280 273 270 271 273 277 283 294 314 326 330 340 340 338 341 340 54 86 95 83 80 85 86 77 71 72 70 52 47 58 46 335 345 21 31 77 55 53 125 117 60 66 77 92 96 85 71 65 60 49 41 31 35 29 6 7 15 12 8 12 4 353 352 347 338 327
6 359 356 355 357 359 359 356 353 352 345 338 333 327 318 310 308 308 305 296 287 281 276 276 283 293 317 332 342 347 348 350 350 352 357 46 83 92 84 81 82 82 79 73 72 76 70 64 65 67 67 63 69 82 94 95 91 93 90 84 82 78 77 75 70 59 46 33 21 16 3 358 4 357 352 354 348 339 349 348 340 343 341 335 328
2 355 351 351 355 357 360 359 357 354 350 344 338 331 321 313 312 310 305 301 299 291 279 281 291 308 356 357 358 356 357 3 4 19 24 45 85 94 87 81 82 83 82 76 71 73 73 70 73 84 87 80 83 93 98 98 96 89 81 77 74 66 62 58 51 38 29 27 21 16 7 360 354 350 343 332 327 323 326 329 332 332 332 335 331
1 356 348 351 353 353 357 359 357 353 351 346 341 336 325 320 318 311 304 299 297 299 287 282 298 337 26 27 19 9 11 24 29 40 44 56 80 90 92 87 84 82 80 77 72 69 70 72 76 84 89 87 87 89 92 91 85 81 77 72 68 62 54 44 39 35 30 24 21 18 13 9 6 7 4 354 342 332 327 324 322 319 314 315 321
358 355 351 355 354 352 353 354 355 349 347 344 340 337 330 329 325 315 309 302 297 296 280 265 299 34 58 55 47 44 36 40 48 52 56 65 78 93 97 93 87 83 79 76 74 71 71 74 75 79 83 82 84 84 82 77 74 77 74 65 63 59 47 40 41 37 30 28 26 23 19 17 16 18 18 12 5 355 348 342 336 333 323 315 316
355 354 354 356 357 356 353 355 353 345 344 344 339 337 333 333 329 321 311 303 302 299 285 279 294 87 83 81 83 79 55 44 51 63 70 82 88 91 93 90 90 88 81 76 77 77 75 75 73 74 75 74 77 79 75 69 68 69 61 50 48 40 29 32 41 34 31 32 29 27 27 24 20 20 18 13 10 6 2 359 357 354 346 339 335
350 349 351 353 357 359 356 355 350 344 347 345 339 337 336 333 331 327 319 306 302 310 315 329 2 106 92 95 108 99 61 53 65 75 82 95 94 92 93 90 87 86 84 81 81 82 80 76 73 72 71 70 69 67 64 66 65 60 61 53 31 22 22 32 39 30 32 32 30 30 26 20 19 18 14 10 6 3 1 359 357 354 350 347 344
341 343 343 347 352 354 354 351 345 344 346 344 342 341 335 329 328 326 322 317 318 325 343 357 63 92 85 85 81 72 66 67 81 88 96 101 98 97 97 92 88 87 87 85 84 88 86 77 75 77 74 71 68 64 59 56 53 53 62 61 44 37 44 50 42 33 35 32 29 28 21 19 17 13 9 5 3 359 357 354 351 349 348 344 342
331 333 331 337 341 341 343 339 337 339 338 339 344 346 339 327 320 319 315 312 316 322 335 18 111 100 92 75 52 46 55 79 99 112 109 107 105 105 99 96 93 89 87 86 85 88 83 69 68 78 79 75 71 66 60 53 51 54 56 56 57 57 57 52 41 35 33 26 26 24 19 17 12 10 6 2 0 358 354 351 347 346 345 342 340
328 326 323 327 329 328 326 323 321 324 327 330 337 345 344 332 316 312 309 303 306 308 302 285 210 140 125 112 94 85 55 116 149 122 103 110 112 109 105 103 99 95 91 89 88 85 79 65 61 70 68 60 59 54 53 54 53 52 51 49 51 51 50 45 37 33 30 27 27 22 18 14 10 8 4 0 359 356 353 350 349 346 344 342 339
324 320 318 320 320 319 315 312 307 305 312 319 325 334 340 334 319 309 302 296 296 294 292 274 216 160 139 131 145 171 122 132 159 107 110 117 116 112 111 107 101 98 95 91 89 80 74 69 66 75 62 38 36 40 42 51 54 50 47 45 43 43 42 40 35 33 32 28 25 20 17 13 10 7 3 1 359 356 352 350 349 345 342 340 338
313 312 311 310 310 311 309 306 302 298 296 302 311 319 323 326 320 309 298 289 280 273 275 253 203 158 141 153 180 180 140 140 134 118 127 130 121 119 117 112 106 99 96 94 88 75 67 65 63 77 73 42 34 37 38 46 52 48 43 41 41 41 39 35 33 32 29 26 23 18 15 13 9 6 4 2 360 356 352 350 347 344 342 340 337
300 300 301 301 301 303 303 301 300 298 292 289 292 299 303 309 314 307 292 285 278 266 254 244 230 196 170 179 193 187 141 137 141 135 136 134 128 128 125 120 113 103 98 89 83 77 72 69 63 65 69 59 47 43 40 40 43 44 41 41 40 38 35 32 32 31 27 25 21 15 15 13 8 6 4 1 358 354 352 351 348 346 343 340 338
295 292 291 291 294 298 299 296 296 295 289 284 279 279 282 293 305 306 295 285 276 267 250 245 247 239 223 205 189 173 150 143 146 143 139 138 138 134 129 124 116 109 104 92 85 83 78 73 69 65 59 58 55 46 39 35 38 40 40 40 38 36 34 32 31 29 26 24 20 16 15 11 8 7 3 0 357 355 354 353 350 348 345 342 340
297 293 289 284 283 286 288 288 288 289 287 284 276 271 270 274 283 293 297 286 269 256 245 249 259 260 248 233 207 181 179 162 150 145 141 141 142 138 131 123 116 113 106 96 92 87 83 79 73 69 61 55 51 41 35 36 40 39 39 41 37 36 35 32 30 27 27 24 19 16 14 11 9 7 3 2 360 357 356 353 351 349 346 343 341
308 299 291 283 279 279 281 282 282 283 282 282 279 272 267 263 265 273 283 284 277 262 252 252 259 262 256 253 233 223 226 166 147 148 144 146 146 144 136 124 120 117 110 103 100 95 88 83 76 69 62 54 48 43 39 39 40 36 39 41 36 35 35 33 30 27 26 24 19 17 15 13 10 8 6 4 1 358 357 354 351 349 348 345 341
315 309 302 293 284 278 278 278 275 276 276 277 279 276 269 264 257 258 263 274 283 279 268 255 255 260 259 265 253 249 258 149 149 148 120 130 139 138 135 129 128 123 117 112 108 103 94 86 78 69 61 54 49 48 46 42 40 35 36 38 35 35 35 33 31 28 27 23 20 17 15 13 12 11 8 5 3 360 359 356 351 350 351 348 343
329 323 316 310 304 295 287 286 280 274 272 273 278 276 271 266 256 252 253 258 267 275 274 262 258 259 254 261 260 253 269 151 163 159 101 106 117 129 132 127 128 129 123 117 112 106 96 88 80 70 62 57 53 53 53 50 47 43 39 37 35 35 35 34 32 30 27 24 21 18 17 17 15 12 8 7 6 2 0 357 354 354 354 353 350
345 336 329 322 319 314 304 299 294 285 278 272 271 273 272 268 258 252 252 253 257 266 274 271 263 257 248 253 255 246 250 237 219 194 131 117 111 127 130 122 122 126 124 118 112 105 97 91 82 74 66 61 59 57 57 55 52 48 44 41 38 38 37 35 34 31 29 25 22 21 22 20 14 10 9 9 7 3 3 359 357 359 356 355 354
354 349 348 340 329 326 322 314 306 296 292 284 273 268 269 268 260 250 249 248 251 261 271 272 266 262 252 247 251 249 242 239 242 229 186 158 139 138 133 124 114 107 112 114 111 106 98 91 83 79 73 68 63 60 58 57 54 47 45 44 41 41 39 37 37 33 31 27 23 24 24 19 12 9 8 8 7 7 6 1 359 1 358 355 353
359 357 358 355 343 334 332 330 321 307 298 291 283 274 265 267 266 255 248 246 247 254 260 264 265 265 262 251 247 250 244 233 236 241 231 183 160 164 150 138 126 111 110 112 113 107 98 93 88 86 82 76 70 65 61 58 55 50 52 52 45 44 43 38 39 36 32 29 26 24 22 15 11 10 8 6 6 7 7 4 1 1 360 356 353
358 357 357 355 351 343 336 332 326 314 301 291 285 279 268 268 267 258 252 250 248 250 251 256 263 263 263 259 250 245 242 231 224 228 236 229 194 169 162 164 152 135 130 121 119 112 104 101 95 92 90 84 78 70 65 64 61 57 65 64 52 48 48 42 41 39 35 32 29 25 21 15 12 11 9 6 6 6 5 4 1 359 1 360 356
355 354 353 351 349 345 340 335 327 317 307 296 287 279 273 272 270 263 260 259 253 249 249 251 256 260 259 259 257 248 238 235 226 215 218 222 206 165 166 174 158 140 144 137 131 126 114 109 104 100 97 92 86 79 74 73 71 65 70 76 63 52 50 48 45 42 41 38 34 30 24 20 16 14 12 9 8 6 4 3 359 356 1 2 359
353 351 351 350 347 344 341 337 331 323 316 307 295 286 280 276 273 270 267 265 260 251 249 249 248 253 255 254 257 252 238 239 235 220 223 223 205 162 162 170 155 134 144 152 151 146 126 118 116 112 106 100 94 90 85 81 77 69 65 76 76 63 53 53 51 48 44 40 37 33 29 25 22 21 18 13 10 8 6 5 360 357 359 360 359
350 348 348 348 347 343 340 337 333 328 322 316 305 295 288 271 258 259 262 264 264 256 249 250 251 252 253 252 253 249 235 233 230 221 227 227 217 182 153 162 157 136 151 169 170 158 143 135 129 122 115 107 102 99 93 88 86 79 69 70 77 75 66 57 54 51 47 43 39 34 30 27 26 25 21 16 13 11 9 6 3 360 358 358 358
347 344 343 344 345 343 339 336 334 330 326 323 316 305 298 274 252 254 255 254 260 262 255 252 255 255 254 255 255 252 238 224 223 220 220 221 217 189 155 159 150 142 164 183 184 174 156 148 140 131 122 113 110 106 100 97 92 88 78 69 69 72 71 65 59 54 48 43 39 35 31 28 25 24 21 18 15 13 11 7 5 2 0 0 359
345 343 342 342 343 343 340 337 335 333 329 326 323 315 306 286 265 258 249 241 245 257 259 255 256 255 250 250 254 255 242 218 218 220 217 219 217 189 171 171 151 149 175 186 192 191 162 152 148 140 131 120 119 113 107 107 95 89 88 78 67 62 64 64 61 57 53 47 40 33 30 26 24 20 17 16 14 11 11 8 5 4 4 4 2
344 343 342 342 343 342 342 339 337 335 331 328 326 322 312 298 282 267 251 241 239 247 258 267 272 270 260 250 249 255 247 222 214 214 210 210 212 196 185 187 173 165 182 185 191 184 160 158 152 147 144 129 127 126 122 118 101 94 96 94 79 62 58 59 56 53 51 50 46 37 29 23 20 17 14 14 12 9 9 7 5 6 7 6 4
345 343 342 343 345 344 342 341 339 337 335 332 331 329 321 308 296 281 262 247 241 244 255 274 281 275 267 255 247 253 251 229 213 205 200 197 199 198 195 200 199 188 186 186 186 172 165 168 160 155 156 140 135 141 141 134 117 113 112 104 97 72 58 54 49 46 43 44 45 41 35 25 18 15 12 13 12 8 7 6 6 7 8 8 8
347 344 343 345 347 345 343 343 341 340 339 336 335 335 331 318 305 291 270 249 242 244 250 260 266 266 263 256 248 250 246 230 215 197 191 191 190 195 200 207 214 213 205 192 179 165 165 174 168 160 159 151 149 151 149 144 132 131 129 117 112 74 58 51 41 39 35 35 37 37 35 28 22 18 14 13 10 7 6 7 9 9 10 11 12
349 345 345 347 347 347 346 346 344 342 342 341 339 338 336 327 314 296 274 257 248 244 241 241 250 261 263 255 248 248 241 230 224 205 190 191 193 196 201 205 210 215 210 193 171 159 164 173 167 161 162 159 157 156 153 158 149 140 144 145 129 51 58 47 29 27 27 27 29 31 29 26 22 19 15 12 9 6 8 11 13 15 15 12 11
350 347 347 348 349 348 348 350 348 345 344 344 343 341 338 331 321 304 283 268 255 248 244 239 249 263 263 251 245 243 236 232 228 214 199 195 199 201 201 202 201 203 198 181 163 154 161 168 161 160 166 163 162 164 158 164 171 160 160 174 189 356 112 324 359 10 14 16 21 24 24 22 19 16 14 12 9 8 12 16 18 19 16 11 8
348 348 347 348 349 349 350 353 352 350 349 347 346 344 340 333 324 313 294 274 260 255 252 246 258 271 268 252 245 239 231 232 228 216 206 199 201 201 198 197 193 195 193 176 162 154 152 160 161 161 166 166 169 175 168 167 180 182 179 192 221 272 249 248 296 350 3 8 13 17 19 18 15 13 13 12 9 11 17 20 20 19 16 13 11
347 349 348 349 349 349 351 354 354 353 355 354 351 347 343 338 327 316 306 288 268 256 251 234 248 277 277 255 244 240 230 231 232 221 211 207 206 202 197 196 191 192 192 179 171 165 155 157 163 162 166 173 176 178 179 178 181 191 198 204 217 230 279 313 274 333 356 3 8 12 16 16 14 14 14 13 11 16 23 23 21 20 17 15 15
347 349 350 350 350 351 351 353 354 356 358 357 356 351 346 341 329 317 311 301 277 251 233 197 213 266 279 262 243 243 240 239 236 224 215 213 210 205 199 196 192 187 187 186 183 174 159 157 165 167 169 180 186 180 181 184 185 196 208 212 228 231 242 299 308 322 346 359 8 13 16 15 14 16 16 14 16 22 26 25 22 20 18 17 17
349 349 350 350 350 351 351 352 355 359 0 359 357 355 350 341 330 321 312 302 281 246 222 200 211 256 279 276 258 246 247 245 230 215 213 214 207 203 196 190 189 182 180 190 193 180 163 160 169 174 173 179 188 182 178 184 191 205 218 220 236 252 252 286 306 300 330 358 11 14 16 14 12 15 14 13 20 24 24 23 21 19 19 18 17
352 350 351 351 350 350 351 352 354 359 4 2 358 357 355 346 335 329 320 308 279 238 216 203 220 254 276 288 279 254 241 238 224 212 213 217 211 204 198 188 181 174 176 189 194 181 166 161 168 174 174 177 182 180 180 186 192 206 223 230 243 268 280 296 298 286 312 348 7 9 11 6 4 10 10 11 20 24 20 20 18 17 18 17 17
353 353 352 352 350 349 350 352 356 0 5 4 1 0 360 353 345 342 338 324 287 235 210 200 224 256 276 289 288 266 239 228 225 224 224 231 225 211 208 197 172 164 174 184 185 177 162 157 165 172 173 176 179 179 185 193 200 209 219 225 235 256 287 310 314 297 302 323 356 11 17 7 360 8 9 9 17 21 17 17 16 16 18 17 18
352 352 352 352 351 351 350 352 358 4 6 5 3 2 3 358 351 355 359 351 320 225 201 201 222 255 274 280 284 271 244 229 226 225 229 240 234 217 210 199 171 166 176 177 177 175 163 158 168 176 174 175 180 185 186 190 208 227 237 241 234 217 220 306 342 359 344 315 313 8 19 12 7 15 11 8 15 17 16 17 16 15 16 18 21
351 351 351 351 352 353 353 354 360 8 10 7 4 2 3 2 355 0 11 11 358 334 190 209 243 263 265 270 279 269 243 234 231 217 214 231 236 218 204 197 179 171 178 177 175 175 168 164 174 176 170 173 181 186 179 184 211 224 226 249 257 235 218 228 34 24 8 359 352 24 20 11 13 23 15 10 15 17 15 18 17 14 15 19 23
349 350 351 351 353 354 356 357 1 10 13 7 4 3 4 6 1 1 13 20 14 17 269 269 275 275 274 278 280 260 221 221 226 213 218 244 254 239 205 197 188 178 184 186 180 174 170 171 174 168 168 175 179 181 180 192 216 209 175 222 244 245 276 234 99 51 14 8 30 48 30 17 21 30 23 16 17 17 18 19 18 15 16 21 26
348 350 351 352 354 354 356 358 0 10 14 5 2 4 5 7 6 360 9 23 29 38 2 292 271 273 287 282 271 247 205 198 204 210 237 251 257 261 236 211 205 191 191 193 183 171 170 175 172 167 173 175 173 183 189 191 206 197 174 219 235 206 263 233 139 89 37 5 31 57 36 20 17 27 28 23 20 20 22 21 18 16 16 22 29
348 350 352 353 354 354 356 358 359 7 10 1 1 5 5 5 7 3 1 7 1 9 31 18 345 311 301 277 247 221 192 178 177 211 246 249 248 253 245 228 228 211 204 203 186 171 172 175 168 171 181 174 169 185 189 178 189 203 201 228 250 227 274 274 139 103 65 10 11 58 44 24 16 23 28 27 24 24 24 22 19 18 19 25 31
347 349 351 354 356 356 358 357 356 3 6 0 1 5 4 2 7 10 5 2 356 351 8 17 9 346 312 271 224 190 173 171 173 218 263 259 243 240 239 233 228 214 211 216 195 174 178 177 170 177 184 171 170 186 188 178 181 191 209 228 260 250 248 304 65 81 67 14 348 56 50 27 16 22 27 29 27 24 24 23 20 20 23 28 30
347 348 350 354 356 358 0 357 355 3 6 1 2 6 4 2 7 14 7 1 1 357 348 353 10 19 332 246 202 179 174 181 192 220 245 245 225 219 224 227 229 220 210 206 199 187 186 179 173 178 180 173 181 188 182 177 174 178 205 207 199 255 237 51 53 67 68 7 332 31 58 38 20 26 30 29 26 19 19 22 21 21 26 30 30
348 348 349 352 355 357 1 358 356 2 3 359 1 5 5 4 8 14 7 360 3 5 357 354 7 13 344 239 190 179 174 170 179 251 185 165 162 168 172 185 211 221 205 197 196 195 198 200 189 175 170 166 164 160 160 169 179 182 197 167 119 229 167 82 74 82 85 40 337 311 51 49 20 27 35 29 27 18 13 16 19 24 29 30 32
350 350 349 351 354 356 0 0 357 359 358 356 359 4 6 6 10 13 6 358 357 1 3 4 7 3 344 297 201 185 172 162 144 121 147 153 148 146 141 144 160 175 180 185 191 187 186 196 196 167 152 137 116 125 144 167 183 173 103 63 51 91 141 134 121 126 113 68 1 317 40 55 15 27 46 30 29 32 17 9 12 23 29 27 31
353 353 352 352 354 356 1 2 359 358 357 355 358 4 7 9 13 13 5 356 350 352 0 6 10 6 348 328 240 193 181 178 157 99 129 152 145 139 137 127 123 135 164 184 192 190 183 167 157 157 153 146 140 135 143 161 175 175 151 125 135 173 177 175 142 126 126 87 29 339 23 51 17 20 55 41 30 38 37 17 6 16 25 21 25
356 356 355 353 355 357 0 3 0 357 357 356 357 3 9 12 13 10 359 352 352 354 358 3 5 356 338 333 297 226 213 196 198 81 110 142 153 142 143 136 126 118 111 122 158 185 197 193 182 181 178 174 170 155 150 153 157 174 204 195 187 218 222 207 117 111 120 91 52 346 356 41 24 3 38 67 47 37 43 34 15 16 22 14 17
357 358 357 354 356 358 359 2 1 358 358 357 357 2 9 14 14 10 1 353 354 356 358 1 1 351 328 331 351 226 220 209 202 122 94 98 170 155 151 154 149 133 114 105 109 118 135 154 164 176 177 166 159 154 154 152 151 172 238 289 136 250 272 340 91 114 124 96 56 348 337 43 37 4 357 98 102 54 43 41 30 26 26 13 11
0 1 1 359 359 0 1 3 4 0 359 359 357 0 9 16 15 12 8 360 352 351 354 359 3 1 351 344 348 305 198 201 195 137 101 61 33 142 165 174 168 148 130 123 121 118 119 121 120 124 134 135 133 144 157 157 154 163 227 325 23 299 309 66 88 178 133 96 57 359 350 26 36 17 4 0 109 75 52 44 38 34 32 24 17